Location: Unspecified
(0.0000°N, 0.0000°E)
Time: 11:58:11
(UTC+00:00)

BlueWalker 3 - Visible Passes

Search period start: 18 March 2026 00:00
Search period end: 28 March 2026 00:00
Orbit: 451 x 457 km, 53.2° (Epoch: 17 March)

Date Brightness Start Highest point End Pass type
(mag) Time Alt. Az. Time Alt. Az. Time Alt. Az.
18 Mar 1.9 18:29:25 10° SSW 18:32:55 53° ESE 18:36:24 10° NE visible
20 Mar 4.1 05:35:34 10° N 05:38:35 26° NE 05:41:36 10° ESE visible
20 Mar 4.8 18:55:52 10° W 18:57:43 14° NW 18:59:35 10° NNW visible
21 Mar 4.6 05:00:00 10° NNE 05:02:22 17° NE 05:04:45 10° E visible
22 Mar 4.9 04:25:09 10° NE 04:26:08 11° NE 04:27:07 10° ENE visible
23 Mar 2.2 05:23:45 10° NW 05:27:08 41° SW 05:30:31 10° SSE visible
24 Mar 1.6 04:50:27 60° WNW 04:50:53 70° WSW 04:54:27 10° SSE visible
25 Mar 4.1 04:17:07 19° SE 04:17:07 19° SE 04:18:12 10° SE visible
